Погода на Станции Мочище

Россия / Новосибирская область     55°09′30″N   83°07′05″E
темп.,
°C
ветер,
м/с
пор.,
м/с
влажн.,
%
обл.,
%
осадки,
мм/ч
давл.,
гПа
погр.,
м
6 мая, чт
чт601:00+11ююз3665100 0.0 1012108
04:00+10ююз346864 0.0 101149
07:00+10ююв34665 0.0 101082
10:00+17ююв45440 0.0 1009437
13:00+22ю563361 0.0 10061034
16:00+23ю5732100 0.0 10051073
19:00+22ю4741100 0.0 1004685
22:00+16ю475877 0.0 1003103
7 мая, пт
пт701:00+15ююз41063100 0.0 1003155
04:00+14ссз51372100 0.0 1005479
07:00+12ссз4107195 0.0 1007501
10:00+15сз4545100 0.0 1009965
13:00+18з793594 0.0 10102558
16:00+17з811315 0.0 10112386
19:00+15з710365 0.0 10132214
22:00+12з5114415 0.0 1016393
8 мая, сб
сб801:00+8з23581 0.0 101835
04:00+7зюз36650 0.0 1019115
07:00+7зюз38620 0.0 1020233
10:00+14зюз693854 0.0 10191136
13:00+17зсз7113974 0.0 10182320
16:00+19сз8123686 0.0 10172621
19:00+17ссз474572 0.0 1017502
22:00+13сз236414 0.0 101947
9 мая, вс
вс901:00+10зсз22724 0.0 101928
04:00+8с2286100 0.0 102041
07:00+7св357391 0.0 1021173
10:00+11св345120 0.0 1022640
13:00+15ссв3439100 0.0 10211251
16:00+16ссв3534100 0.0 10201630
19:00+14всв454092 0.0 1020868
22:00+10св395135 0.0 1021175
10 мая, пн
пн1001:00+7всв385990 0.0 1020143
04:00+6всв376398 0.0 1020117
07:00+6св3965100 0.0 1020271
10:00+12всв684466 0.0 10181042
13:00+15св673743 0.0 10161488
16:00+16св673438 0.0 10151826
19:00+15св56366 0.0 10142060
22:00+10с5115034 0.0 1014361